Weather History for KRBD - April, 2013

Change the Weather History Date:

Monday, April 29, 2013

  Actual Average Record
Temperature  
Mean Temperature 74 °F -  
Max Temperature 84 °F 77 °F 89 °F (2002)
Min Temperature 63 °F 58 °F 44 °F (1998)
Cooling Degree Days 8    
Growing Degree Days 24 (Base 50)    
Moisture  
Dew Point 60 °F    
Average Humidity 63    
Maximum Humidity 87    
Minimum Humidity 40    
Precipitation  
Precipitation 0.00 in - - ()
Sea Level Pressure  
Sea Level Pressure 29.84 in    
Wind  
Wind Speed 7 mph (SSE)    
Max Wind Speed 17 mph    
Max Gust Speed 25 mph    
Visibility 10 miles    
Events      
Averages and records for this station are not official NWS values.
T = Trace of Precipitation, MM = Missing Value Source: NWS Daily Summary

Daily Weather History Graph

Daily Weather History Graph

Search for Another Location

Airport or City:

Trip Planner

Search our weather history database for the weather conditions in past years. The results will help you decide how hot, cold, wet, or windy it might be!

Date:

Astronomy

Apr. 29, 2013 Rise Set
Actual Time 6:42 AM CDT 8:07 PM CDT
Civil Twilight 6:16 AM CDT 8:33 PM CDT
Nautical Twilight 5:44 AM CDT 9:05 PM CDT
Astronomical Twilight 5:12 AM CDT 9:37 PM CDT
Moon No Moon Rise 10:09 AM CDT (4/29)
Length of Visible Light 14h 17m
Length of Day
13h 25m
Waning Gibbous, 80% of the Moon is Illuminated
Apr 29
Waning Gibbous
May 2
Last Quarter
May 9
New
May 17
First Quarter
May 24
Full

Hourly Weather History & Observations

Time (CDT) Temp. Heat Index Dew Point Humidity Pressure Visibility Wind Dir Wind Speed Gust Speed Precip Events Conditions
12:53 AM 68.0 °F - 60.1 °F 76% 29.86 in 10.0 mi SSE 8.1 mph - N/A   Clear
1:53 AM 69.1 °F - 60.1 °F 73% 29.86 in 10.0 mi Variable 5.8 mph - N/A   Clear
2:53 AM 68.0 °F - 60.1 °F 76% 29.85 in 10.0 mi Variable 4.6 mph - N/A   Clear
3:53 AM 66.9 °F - 60.1 °F 79% 29.85 in 10.0 mi Variable 5.8 mph - N/A   Clear
4:53 AM 66.0 °F - 60.1 °F 81% 29.85 in 10.0 mi South 3.5 mph - N/A   Clear
5:53 AM 64.0 °F - 60.1 °F 87% 29.86 in 10.0 mi Calm Calm - N/A   Clear
6:53 AM 63.0 °F - 59.0 °F 87% 29.87 in 10.0 mi Calm Calm - N/A   Clear
7:53 AM 64.9 °F - 61.0 °F 87% 29.89 in 10.0 mi South 4.6 mph - N/A   Clear
8:53 AM 68.0 °F - 63.0 °F 84% 29.89 in 10.0 mi Calm Calm - N/A   Clear
9:53 AM 75.9 °F - 64.9 °F 69% 29.89 in 10.0 mi Variable 6.9 mph - N/A   Clear
10:53 AM 79.0 °F - 62.1 °F 56% 29.89 in 10.0 mi South 8.1 mph - N/A   Clear
11:53 AM 81.0 °F 81.9 °F 62.1 °F 52% 29.88 in 10.0 mi South 8.1 mph - N/A   Clear
12:53 PM 82.0 °F 82.4 °F 60.1 °F 47% 29.87 in 10.0 mi South 10.4 mph - N/A   Clear
1:53 PM 82.9 °F 82.6 °F 57.9 °F 42% 29.86 in 10.0 mi South 8.1 mph 25.3 mph N/A   Clear
2:53 PM 84.0 °F 83.3 °F 57.0 °F 40% 29.83 in 10.0 mi SSE 11.5 mph 18.4 mph N/A   Clear
3:53 PM 84.0 °F 83.8 °F 59.0 °F 43% 29.81 in 10.0 mi SSE 13.8 mph 18.4 mph N/A   Clear
4:53 PM 82.9 °F 83.3 °F 61.0 °F 47% 29.79 in 10.0 mi SSE 12.7 mph 19.6 mph N/A   Clear
5:53 PM 82.9 °F 82.6 °F 57.9 °F 42% 29.78 in 10.0 mi SE 17.3 mph 24.2 mph N/A   Clear
6:53 PM 81.0 °F 81.0 °F 57.0 °F 44% 29.77 in 10.0 mi SSE 10.4 mph 18.4 mph N/A   Clear
7:53 PM 78.1 °F - 57.0 °F 48% 29.78 in 10.0 mi SSE 8.1 mph 16.1 mph N/A   Clear
8:53 PM 73.9 °F - 57.9 °F 57% 29.80 in 10.0 mi SSE 5.8 mph - N/A   Clear
9:53 PM 72.0 °F - 57.9 °F 61% 29.81 in 10.0 mi SSE 4.6 mph - N/A   Clear
10:53 PM 71.1 °F - 57.9 °F 63% 29.81 in 10.0 mi SSE 6.9 mph - N/A   Clear
11:53 PM 70.0 °F - 57.0 °F 63% 29.81 in 10.0 mi Variable 5.8 mph - N/A   Clear